Regional Weather Roundup
Issued by NWS

Home | Current Version | Previous Version | Graphics & Text | Print | Product List | Glossary On
Versions: 1 2 3 4 5 6 7 8 9 10 11 12 13 14 15 16 17 18 19 20 21 22 23 24 25 26 27 28 29 30 31 32 33 34 35 36 37 38 39 40 41 42 43 44 45 46 47 48 49 50
000
ASUS43 KFSD 231502
RWRSD

WEATHER ROUNDUP FOR SOUTH DAKOTA
NATIONAL WEATHER SERVICE SIOUX FALLS SD
900 AM CST THU FEB 23 2017

NOTE: "FAIR" INDICATES FEW OR NO CLOUDS BELOW 12,000 FEET WITH NO
SIGNIFICANT WEATHER AND/OR OBSTRUCTIONS TO VISIBILITY.


SDZ001>005-009-010-012>017-231600-
NORTHWEST AND NORTH CENTRAL SOUTH DAKOTA

CITY           SKY/WX    TMP DP  RH WIND       PRES   REMARKS
BUFFALO          N/A     27  24  89 NE14      29.86R WCI  16
FAITH            N/A     27  26  96 E9        29.93S WCI  18
MOBRIDGE       CLOUDY    30  24  78 N9        29.97R WCI  22
$$

SDZ012>016-024>037-041>051-057-063-072>074-231600-
SOUTHWEST AND SOUTH CENTRAL SOUTH DAKOTA

CITY           SKY/WX    TMP DP  RH WIND       PRES   REMARKS
RAPID CTY ARPT LGT SNOW  26  23  88 NE15      29.86R FOG     WCI  14
PIERRE         CLOUDY    28  23  81 NE12      29.95S WCI  18
CUSTER         LGT SNOW  20  16  84 NE16G23   29.71R FOG     WCI   6
PHILIP         CLOUDY    28  23  81 NE15      29.91F WCI  16
PINE RIDGE     SNOW      26  24  92 NE15      29.79S VSB 1/2 WCI  14
SPEARFISH      MIX PCPN  27  27 100 MISG      29.84S VSB 1
WINNER         CLOUDY    30  24  78 N14       29.89S WCI  19
$$

SDZ004>011-016>023-039-040-231600-
NORTHEAST SOUTH DAKOTA

CITY           SKY/WX    TMP DP  RH WIND       PRES   REMARKS
ABERDEEN       CLOUDY    28  23  81 NE12      29.99R WCI  18
WATERTOWN      MOSUNNY   28  22  78 NE20      29.93R WCI  15
SISSETON         N/A     29  26  89 NE14      29.98S WCI  18
$$

SDZ017-020-022-023-036>040-048>070-231600-
SOUTHEAST SOUTH DAKOTA

CITY           SKY/WX    TMP DP  RH WIND       PRES   REMARKS
SIOUX FALLS    CLOUDY    32  27  81 NE12      29.89S WCI  23
HURON          CLOUDY    29  26  89 N9        29.94F WCI  20
CHAMBERLAIN    CLOUDY    31  26  81 N13G18    29.91F WCI  21
MITCHELL       CLOUDY    31  27  85 N13       29.91F WCI  21
YANKTON        CLOUDY    34  28  80 NE17      29.86F WCI  23
$$

ABBREVIATIONS USED IN REMARKS
   TC - TEMPERATURE IN CELSIUS
  WCI - WIND CHILL INDEX
   HX - HEAT INDEX
  VSB - VISIBILITY





USA.gov is the U.S. government's official web portal to all federal, state and local government web resources and services.